Miscellaneous Local Product
Issued by NWS Hastings, NE

Home | Current Version | Previous Version | Graphics & Text | Print | Product List | Glossary On
Versions: 1 2 3 4 5 6 7 8 9 10 11 12 13 14 15 16 17 18 19 20 21 22 23 24 25 26 27 28 29 30 31 32 33 34 35 36 37 38 39 40 41 42 43 44 45 46 47 48 49 50
000
AXUS43 KGID 311802
MISGRI

GID CWA HOURLY WEATHER ROUNDUP
NATIONAL WEATHER SERVICE HASTINGS NE
1200 PM CST SAT JAN 31 2015

NOTE: "FAIR" INDICATES FEW OR NO CLOUDS BELOW 12,000 FEET WITH NO
SIGNIFICANT WEATHER AND/OR OBSTRUCTIONS TO VISIBILITY.

...SOUTH CENTRAL NEBRASKA...

CITY           SKY/WX    TMP DP  RH WIND       PRES   REMARKS
GRAND ISLAND   LGT SNOW  33  31  92 S9        30.03F FOG     WCI  25
HASTINGS       LGT SNOW  33  31  92 S9        30.00F FOG     WCI  25
KEARNEY        CLOUDY    34  30  86 SE7       29.99F WCI  28
ORD            CLOUDY    34  31  88 S6        30.00F WCI  29
YORK           LGT SNOW  32  32 100 S10       30.05F VSB 3/4 WCI  24
AURORA         LGT SNOW  33  33 100 S10       30.03F WCI  25
LEXINGTON      CLOUDY    34  33  96 SE7       29.96F FOG     WCI  28
HOLDREGE       CLOUDY    32  32  98 SE9       29.98F FOG     WCI  25
HEBRON         LGT SNOW  33  32  95 SE12      30.07F WCI  24

...NEBRASKA PANHANDLE...

CITY           SKY/WX    TMP DP  RH WIND       PRES   REMARKS
CHADRON        CLOUDY    32  25  75 NE8       29.97S WCI  25
ALLIANCE       LGT SNOW  31  28  89 N8        29.91F VSB 3/4 WCI  23
SCOTTSBLUFF    SNOW      32  30  92 N3        29.92F VSB 1/2
SIDNEY         LGT SNOW  34  31  88 NE5       29.91S FOG     WCI  30

...WESTERN AND NORTH CENTRAL NEBRASKA...

CITY           SKY/WX    TMP DP  RH WIND       PRES   REMARKS
VALENTINE      FOG       26  25  96 NE14      30.01F VSB 1/4 WCI  14
AINSWORTH      CLOUDY    28  27  93 NE14      29.99F FOG     WCI  17
ONEILL         CLOUDY    31  29  94 N9        30.04S WCI  22
BROKEN BOW     LGT SNOW  34  32  92 SE7       29.96F FOG     WCI  28
IMPERIAL       FOG       33  32  96 NE6       29.90F VSB 3/4 WCI  28
NORTH PLATTE   CLOUDY    34  31  88 E7        29.93F WCI  28
MCCOOK         FOG       36  34  92 E8        29.92F VSB 3/4 WCI  30

...EASTERN NEBRASKA...

CITY           SKY/WX    TMP DP  RH WIND       PRES   REMARKS
NORFOLK        CLOUDY    36  33  89 S8        30.04F WCI  30
SO SIOUX CITY  CLOUDY    38  35  89 S8        30.10F FOG     WCI  32
TEKAMAH        LGT RAIN  37  34  89 S13       30.12F WCI  29
COLUMBUS       CLOUDY    36  28  75 S10       30.07F WCI  28
ALBION         LGT RAIN  35  31  87 S8        30.03F WCI  28
OMAHA EPPLEY   LGT SNOW  35  33  92 S8        30.13F FOG     WCI  29
OFFUTT AFB     FLURRIES  35  33  95 S8        30.13F WCI  28
MILLARD        LGT SNOW  35  33  94 SE6       30.14F WCI  29
LINCOLN        LGT SNOW  33  32  96 S10       30.11F FOG     WCI  25
NEBRASKA CITY  LGT RAIN  35  35 100 S15       30.15F WCI  25
BEATRICE       LGT SNOW  33  32  98 SE10      30.11F WCI  25
FALLS CITY     RAIN      35  34  96 SE15      30.16F FOG     WCI  25

...NORTHERN KANSAS...

CITY           SKY/WX    TMP DP  RH WIND       PRES   REMARKS
GOODLAND       CLOUDY    39  34  82 N8        29.87F WCI  33
HILL CITY      LGT RAIN  36  34  92 S8        29.95F WCI  30
NORTON         CLOUDY    34  32  93 E6        29.93F FOG     WCI  29
PHILLIPSBURG   LGT SNOW  36  36 100 E7        29.98F WCI  30
SMITH CENTER   LGT SNOW  30  30 100 SE13      30.01F WCI  20
BELOIT         CLOUDY    34  34 100 SE14G20   30.03F WCI  24
HAYS           CLOUDY    36  28  75 S12       29.98F WCI  27
RUSSELL        RAIN      35  35 100 SE10      29.99F FOG     WCI  27
CONCORDIA      LGT SNOW  33  33 100 SE15      30.05F FOG     WCI  23
SALINA         RAIN      37  34  89 S12       30.08F FOG     WCI  29
TOPEKA         LGT RAIN  38  36  92 S8        30.18F FOG     WCI  32



USA.gov is the U.S. government's official web portal to all federal, state and local government web resources and services.